Location: Rio Negrinho
(26.2394°S, 49.4999°W)
Time: 00:19:58
(UTC+00:00)

Cosmos 1371 Rocket - Pass Details

Date: 07 June 2020
Orbit: 754 x 789 km, 74.0° (Epoch: 13 July)

Event Time Altitude Azimuth Distance (km) Brightness Sun altitude
Rises 09:24:39 0° 342° (NNW) 3,228 7.3 -8.3°
Reaches altitude 10° 09:27:00 10° 341° (NNW) 2,314 6.5 -7.8°
Maximum altitude 09:32:16 76° 255° (WSW) 810 4.0 -6.7°
Drops below altitude 10° 09:37:39 10° 169° (SSE) 2,363 6.4 -5.6°
Sets 09:40:04 0° 167° (SSE) 3,301 7.2 -5.1°
